Weather History for Crossville, TN

Change the Weather History Date:

Tuesday, July 9, 2013

  Actual Average Record
Temperature  
Mean Temperature 76 °F 75 °F  
Max Temperature 83 °F 84 °F 98 °F (1988)
Min Temperature 68 °F 65 °F 53 °F (1961)
Degree Days  
Heating Degree Days 0    
Month to date heating degree days 0  
Since 1 June heating degree days 0  
Since 1 July heating degree days 0  
Cooling Degree Days 11    
Month to date cooling degree days 55  
Year to date cooling degree days 329  
Since 1 June cooling degree days 249  
Growing Degree Days 25 (Base 50)    
Moisture  
Dew Point 69 °F    
Average Humidity 83    
Maximum Humidity 97    
Minimum Humidity 69    
Precipitation  
Precipitation 0.10 in 0.17 in 1.14 in (1987)
Month to date precipitation 6.79 1.46  
Year to date precipitation 40.68 30.44  
Sea Level Pressure  
Sea Level Pressure 30.18 in    
Wind  
Wind Speed 1 mph (WSW)    
Max Wind Speed 9 mph    
Max Gust Speed 14 mph    
Visibility 6 miles    
Events Fog , Rain , Thunderstorm    
T = Trace of Precipitation, MM = Missing Value Source: NWS Daily Summary

Daily Weather History Graph

Daily Weather History Graph

Search for Another Location

Airport:

Trip Planner

Search our weather history database for the weather conditions in past years. The results will help you decide how hot, cold, wet, or windy it might be!

Date:

Astronomy

Jul. 09, 2013 Rise Set
Actual Time 5:31 AM CDT 7:59 PM CDT
Civil Twilight 5:01 AM CDT 8:29 PM CDT
Nautical Twilight 4:25 AM CDT 9:05 PM CDT
Astronomical Twilight 3:44 AM CDT 9:46 PM CDT
Moon 6:51 AM CDT (7/9) 8:41 PM CDT (7/9)
Length of Visible Light 15h 27m
Length of Day
14h 27m
New Moon, 2% of the Moon is Illuminated
Jul 9
New Moon
Jul 15
First Quarter
Jul 22
Full
Jul 29
Last Quarter
Aug 6
New

Hourly Weather History & Observations

Time (CDT) Temp. Heat Index Dew Point Humidity Pressure Visibility Wind Dir Wind Speed Gust Speed Precip Events Conditions
12:27 AM 69.8 °F - 68.0 °F 94% 30.22 in 1.8 mi Calm Calm - N/A   Clear
12:36 AM 69.8 °F - 68.0 °F 94% 30.22 in 0.8 mi Calm Calm - N/A   Clear
12:44 AM 69.8 °F - 68.0 °F 94% 30.22 in 1.2 mi Calm Calm - N/A   Clear
12:53 AM 70.0 °F - 68.0 °F 93% 30.16 in 1.8 mi Calm Calm - N/A   Clear
1:11 AM 69.8 °F - 68.0 °F 94% 30.21 in 0.8 mi Calm Calm - N/A   Clear
1:16 AM 69.8 °F - 68.0 °F 94% 30.21 in 2.0 mi Calm Calm - N/A   Clear
1:24 AM 69.8 °F - 68.0 °F 94% 30.22 in 4.0 mi Calm Calm - N/A   Clear
1:34 AM 69.8 °F - 66.2 °F 88% 30.22 in 1.8 mi Calm Calm - N/A   Clear
1:53 AM 69.1 °F - 68.0 °F 96% 30.15 in 4.0 mi Calm Calm - N/A   Clear
2:05 AM 69.8 °F - 68.0 °F 94% 30.22 in 2.0 mi Calm Calm - N/A   Clear
2:53 AM 68.0 °F - 66.9 °F 96% 30.14 in 2.5 mi Calm Calm - N/A   Clear
3:03 AM 69.8 °F - 68.0 °F 94% 30.21 in 6.0 mi Calm Calm - N/A   Clear
3:27 AM 69.8 °F - 66.2 °F 88% 30.21 in 1.8 mi Calm Calm - N/A   Clear
3:44 AM 68.0 °F - 66.2 °F 94% 30.21 in 3.0 mi Calm Calm - N/A   Clear
3:53 AM 68.0 °F - 66.9 °F 96% 30.15 in 4.0 mi Calm Calm - N/A   Clear
4:53 AM 70.0 °F - 68.0 °F 93% 30.15 in 9.0 mi Calm Calm - N/A   Clear
5:15 AM 69.8 °F - 66.2 °F 88% 30.22 in 2.0 mi Calm Calm - N/A   Clear
5:24 AM 69.8 °F - 66.2 °F 88% 30.22 in 7.0 mi Calm Calm - N/A   Clear
5:45 AM 69.8 °F - 66.2 °F 88% 30.22 in 1.5 mi Calm Calm - N/A   Clear
5:53 AM 68.0 °F - 66.9 °F 96% 30.16 in 1.0 mi Calm Calm - N/A   Clear
5:57 AM 68.0 °F - 66.2 °F 94% 30.22 in 0.5 mi Calm Calm - N/A Fog Fog
6:06 AM 69.8 °F - 66.2 °F 88% 30.21 in 0.2 mi Calm Calm - N/A Fog Fog
6:12 AM 69.8 °F - 66.2 °F 88% 30.21 in 0.8 mi Calm Calm - N/A   Mist
6:14 AM 68.0 °F - 66.2 °F 94% 30.22 in 1.5 mi Calm Calm - N/A   Partly Cloudy
6:21 AM 69.8 °F - 66.2 °F 88% 30.22 in 3.0 mi Calm Calm - N/A   Partly Cloudy
6:53 AM 71.1 °F - 69.1 °F 93% 30.16 in 8.0 mi Calm Calm - N/A   Clear
7:53 AM 75.0 °F - 71.1 °F 87% 30.16 in 10.0 mi West 4.6 mph - N/A   Clear
8:20 AM 75.2 °F - 71.6 °F 89% 30.23 in 10.0 mi West 5.8 mph - N/A   Partly Cloudy
8:45 AM 75.2 °F - 71.6 °F 89% 30.23 in 10.0 mi West 6.9 mph - N/A   Mostly Cloudy
8:53 AM 77.0 °F - 71.1 °F 82% 30.17 in 10.0 mi West 4.6 mph - N/A   Mostly Cloudy
9:40 AM 78.8 °F - 71.6 °F 78% 30.23 in 10.0 mi SSW 3.5 mph - N/A   Scattered Clouds
9:53 AM 79.0 °F - 71.1 °F 77% 30.17 in 10.0 mi Calm Calm - N/A   Partly Cloudy
10:24 AM 78.8 °F - 71.6 °F 78% 30.23 in 10.0 mi WNW 6.9 mph - N/A   Mostly Cloudy
10:35 AM 78.8 °F - 71.6 °F 78% 30.23 in 10.0 mi West 4.6 mph - N/A   Overcast
10:53 AM 77.0 °F - 72.0 °F 84% 30.17 in 10.0 mi Calm Calm - N/A   Mostly Cloudy
11:53 AM 81.0 °F 84.9 °F 71.1 °F 72% 30.16 in 10.0 mi Variable 4.6 mph - N/A   Partly Cloudy
12:53 PM 81.0 °F 84.4 °F 70.0 °F 69% 30.14 in 10.0 mi Variable 5.8 mph - N/A   Scattered Clouds
1:22 PM 82.4 °F 87.2 °F 71.6 °F 70% 30.20 in 10.0 mi Variable 5.8 mph - N/A Thunderstorm Thunderstorm
1:53 PM 77.0 °F - 73.0 °F 88% 30.15 in 5.0 mi SW 3.5 mph - 0.04 in Rain , Thunderstorm Light Thunderstorms and Rain
2:09 PM 75.2 °F - 71.6 °F 89% 30.21 in 5.0 mi Variable 4.6 mph - 0.03 in Rain , Thunderstorm Light Rain
2:28 PM 73.4 °F - 71.6 °F 94% 30.20 in 6.0 mi East 4.6 mph - 0.04 in Rain , Thunderstorm Light Thunderstorms and Rain
2:53 PM 73.9 °F - 72.0 °F 93% 30.14 in 10.0 mi East 3.5 mph - 0.04 in Thunderstorm Thunderstorm
3:53 PM 73.9 °F - 72.0 °F 93% 30.12 in 10.0 mi Calm Calm - 0.02 in   Mostly Cloudy
4:53 PM 75.9 °F - 72.0 °F 87% 30.09 in 10.0 mi Calm Calm - N/A   Partly Cloudy
5:53 PM 77.0 °F - 73.9 °F 90% 30.09 in 10.0 mi Calm Calm - N/A   Overcast
6:53 PM 77.0 °F - 73.9 °F 90% 30.09 in 10.0 mi Calm Calm - N/A   Overcast
7:53 PM 75.0 °F - 73.0 °F 94% 30.09 in 10.0 mi Calm Calm - N/A   Clear
8:53 PM 73.9 °F - 72.0 °F 93% 30.09 in 10.0 mi Calm Calm - N/A   Mostly Cloudy
9:53 PM 73.0 °F - 70.0 °F 90% 30.10 in 10.0 mi Calm Calm - N/A   Clear
10:44 PM 71.6 °F - 69.8 °F 94% 30.16 in 1.8 mi Calm Calm - N/A   Clear
10:53 PM 72.0 °F - 70.0 °F 93% 30.10 in 4.0 mi Calm Calm - N/A   Clear
11:53 PM 71.1 °F - 69.1 °F 93% 30.09 in 10.0 mi Calm Calm - 0.01 in   Clear